Home > Weather > Boca Raton > Past weeks

Flag for USA Past Weather in Boca Raton, Florida, USA — Yesterday and Last 2 Weeks

Now
74 °F

Clear.


Feels Like: 71 °F
Forecast: 75 / 86 °F
Wind: 3 mph from East

Location: Pompano Beach - Pompano Beach Airpark

Current Time: May 30, 2016 at 6:59:12 AM

Latest Report: May 30, 2016 at 5:53 AM


Visibility: 10 mi

Pressure: 29.98 "Hg

Humidity: 94%

Dew Point: 72 °F

Location of Boca RatonLocation

Past Weather in Boca Raton — Graph

°F

Boca Raton Temperature Yesterday

Maximum temperature yesterday: 85 °F (at 11:53 AM)
Minimum temperature yesterday: 73 °F (at 1:53 AM)
Average temperature yesterday: 80 °F

High & Low Weather Summary for the Past Weeks

 TemperatureHumidityPressure
High90 °F (May 22, 2:53 PM)97% (May 18, 5:53 PM)30.19 "Hg (May 18, 5:53 PM)
Low71 °F (May 18, 6:03 PM)40% (May 15, 10:53 AM)29.85 "Hg (May 22, 5:53 PM)
Average80 °F73%30.02 "Hg
* Reported May 15 4:53 AM — May 30 4:53 AM, Boca Raton, Weather by CustomWeather, © 2016

Note: Actual official high and low records may vary slightly from our data, if they occured in-between our weather recording intervals... More about our weather records

Advertising

Boca Raton Weather History for the Previous 24 Hours

Scroll right to see more
 ConditionsComfort  
Time TempWeatherWind HumidityBarometerVisibility
4:53 AM
Mon, May 30
75 °FClear.3 mph88%29.98 "Hg10 mi
3:53 AM75 °FThundershowers. Clear.No wind94%29.98 "Hg10 mi
2:53 AM77 °FThundershowers. Passing clouds.5 mph82%29.99 "Hg10 mi
1:53 AM76 °FClear.6 mph88%30.01 "Hg10 mi
12:53 AM78 °FClear.3 mph76%30.02 "Hg10 mi
11:53 PM
Sun, May 29
80 °FClear.No wind71%30.03 "Hg10 mi
10:53 PM80 °FClear.5 mph69%30.05 "Hg10 mi
9:53 PM80 °FPassing clouds.3 mph71%30.06 "Hg10 mi
8:53 PM81 °FSunny.7 mph69%30.04 "Hg10 mi
7:53 PM81 °FSunny.6 mph72%30.01 "Hg10 mi
6:53 PM82 °FSunny.8 mph67%30.01 "Hg10 mi
5:53 PM84 °FSunny.9 mph65%30.02 "Hg10 mi
4:53 PM85 °FSunny.13 mph65%30.02 "Hg10 mi
3:53 PM85 °FSunny.9 mph68%30.03 "Hg10 mi
2:53 PM85 °FSunny.10 mph68%30.04 "Hg10 mi
1:53 PM85 °FSunny.9 mph65%30.05 "Hg10 mi
12:53 PM85 °FPassing clouds.8 mph61%30.06 "Hg10 mi
11:53 AM85 °FPassing clouds.7 mph61%30.07 "Hg10 mi
10:53 AM84 °FPassing clouds.8 mph65%30.07 "Hg10 mi
9:53 AM82 °FPassing clouds.No wind70%30.07 "Hg10 mi
8:53 AM80 °FPassing clouds.3 mph76%30.06 "Hg10 mi
7:53 AM77 °FPassing clouds.7 mph88%30.05 "Hg10 mi
6:53 AM73 °FPassing clouds.No wind94%30.04 "Hg8 mi
Weather by CustomWeather, © 2016

See weather overviewHow to use our weather pages